Home   Weather   Shepparton   Past weeks

Flag for Australia Past Weather in Shepparton, Victoria, Australia — Yesterday and Last 2 Weeks

Now
55 °F

Overcast.


Feels Like: 53 °F
Forecast: 47 / 72 °F
Wind: 8 mph from Northwest

Location: Mangalore Airport

Current Time: Oct 1, 2016 at 8:24:11 PM

Latest Report: Oct 1, 2016 at 6:00 PM


Visibility: N/A

Pressure: 29.76 "Hg

Humidity: 72%

Dew Point: 46 °F

Location of SheppartonLocation

Past Weather in Shepparton — Graph

°F

Shepparton Temperature Yesterday

Maximum temperature yesterday: 57 °F (at 2:00 PM)
Minimum temperature yesterday: 44 °F (at 6:00 AM)
Average temperature yesterday: 49 °F

High & Low Weather Summary for the Past Weeks

 TemperatureHumidityPressure
High63 °F (Sep 23, 3:00 PM)100% (Sep 18, 6:00 AM)30.14 "Hg (Sep 18, 6:00 AM)
Low35 °F (Sep 27, 6:00 AM)51% (Sep 25, 2:00 PM)29.18 "Hg (Sep 30, 2:00 AM)
Average52 °F83%29.81 "Hg
* Reported Sep 16 6:00 PM — Oct 1 6:00 PM, Shepparton, Weather by CustomWeather, © 2016

Note: Actual official high and low records may vary slightly from our data, if they occured in-between our weather recording intervals... More about our weather records

Advertising

Shepparton Weather History for the Previous 24 Hours

Scroll right to see more
 ConditionsComfort  
Time TempWeatherWind HumidityBarometerVisibility
6:00 PM
Sat, Oct 1
55 °FOvercast.8 mph72%29.76 "HgN/A
5:00 PM56 °FCool.13 mph68%29.75 "HgN/A
3:00 PM57 °FOvercast.13 mph68%29.72 "HgN/A
2:00 PM57 °FCool.17 mph73%29.70 "HgN/A
12:00 PM57 °FOvercast.12 mph74%29.70 "HgN/A
11:00 AM56 °FCool.13 mph78%29.70 "HgN/A
9:00 AM54 °FOvercast.12 mph87%29.67 "HgN/A
8:00 AM53 °FCool.10 mph89%29.65 "HgN/A
6:00 AM52 °FOvercast.10 mph97%29.59 "HgN/A
5:00 AM51 °FCool.12 mph100%29.57 "HgN/A
3:00 AM49 °FLow clouds.5 mph100%29.50 "Hg5 mi
2:00 AM49 °FCool.8 mph100%29.50 "HgN/A
12:00 AM48 °FLow clouds.8 mph100%29.50 "HgN/A
11:00 PM
Fri, Sep 30
47 °FCool.7 mph100%29.50 "HgN/A
9:00 PM50 °FOvercast.5 mph100%29.50 "HgN/A
8:00 PM49 °FCool.3 mph99%29.47 "HgN/A
Weather by CustomWeather, © 2016

See weather overviewHow to use our weather pages